FW9225 Weather Reports


time (UTC)temp
F
wind
direction
speed
knots
gust
knots
rain 1hr
in
rain 24hr
in
rain mn
in
humidity
%
barometer
mb
20260507224545 64 164 1.7 7.0 0.00 0.32 0.15 37 1007.7
20260507223131 64 135 3.5 7.0 0.00 0.32 0.15 38 1007.8
20260507221541 63 160 5.2 8.7 0.00 0.32 0.15 36 1007.8
20260507220038 63 160 3.5 9.6 0.00 0.32 0.15 37 1007.8
20260507214548 65 186 2.6 7.0 0.00 0.32 0.15 36 1007.7
20260507213039 64 150 1.7 13.9 0.00 0.32 0.15 36 1007.8
20260507211545 64 160 5.2 9.6 0.00 0.32 0.15 37 1007.8
20260507210048 64 139 5.2 10.4 0.00 0.32 0.15 36 1007.6
20260507204542 64 134 4.3 9.6 0.00 0.32 0.15 36 1007.4
20260507203042 65 184 2.6 9.6 0.00 0.32 0.15 38 1007.4
20260507201541 64 154 4.3 7.8 0.00 0.32 0.15 37 1007.6
20260507200054 64 140 4.3 7.8 0.00 0.32 0.15 40 1007.7
20260507194538 64 135 1.7 8.7 0.00 0.32 0.15 40 1007.9
20260507193046 63 0 1.7 6.1 0.00 0.32 0.15 38 1007.9
20260507191539 63 137 6.1 10.4 0.00 0.32 0.15 38 1008.3
20260507190050 63 167 4.3 7.0 0.00 0.32 0.15 40 1008.5
20260507184542 63 142 2.6 7.0 0.00 0.32 0.15 42 1008.7
20260507183042 62 113 2.6 6.1 0.00 0.32 0.15 50 1008.8
20260507181540 62 153 1.7 6.1 0.00 0.32 0.15 46 1008.7
20260507180039 62 231 2.6 8.7 0.00 0.32 0.15 46 1008.9
20260507174554 61 145 2.6 9.6 0.00 0.32 0.15 49 1009.1
20260507173039 61 189 3.5 9.6 0.00 0.32 0.15 48 1009.5
20260507171540 60 143 0.9 7.8 0.00 0.32 0.15 49 1009.7
20260507170045 60 132 2.6 8.7 0.00 0.32 0.15 51 1010.0
20260507164539 59 167 5.2 10.4 0.00 0.35 0.15 48 1010.3
20260507163043 58 153 5.2 11.3 0.00 0.35 0.15 49 1010.5
20260507161550 58 196 3.5 11.3 0.00 0.35 0.15 51 1010.7
20260507160046 58 167 5.2 8.7 0.00 0.35 0.15 52 1010.7
20260507154543 57 181 4.3 9.6 0.00 0.43 0.15 49 1010.9
20260507153101 57 145 5.2 10.4 0.00 0.43 0.15 53 1010.9
20260507151546 57 140 4.3 8.7 0.00 0.43 0.15 56 1011.2
20260507150046 56 141 2.6 6.1 0.00 0.43 0.15 62 1011.4
20260507144551 55 153 4.3 7.8 0.00 0.48 0.15 60 1011.5
20260507143041 55 158 4.3 10.4 0.00 0.48 0.15 68 1011.6
20260507141538 54 155 3.5 9.6 0.00 0.48 0.15 68 1011.7
20260507140037 53 206 3.5 8.7 0.00 0.48 0.15 68 1011.7
20260507134541 53 150 4.3 10.4 0.00 0.48 0.15 69 1011.8
20260507133041 52 139 3.5 7.8 0.00 0.48 0.15 73 1011.9
20260507131540 51 158 2.6 7.0 0.00 0.48 0.15 76 1012.0
20260507130055 51 134 2.6 7.0 0.00 0.48 0.15 80 1011.8
20260507124554 51 150 2.6 7.0 0.00 0.48 0.15 82 1011.9
20260507123043 50 137 2.6 5.2 0.00 0.48 0.15 87 1011.8
20260507121547 51 129 1.7 4.3 0.00 0.48 0.15 91 1011.8
20260507120040 50 137 1.7 5.2 0.00 0.48 0.15 93 1011.6
20260507114550 50 149 1.7 4.3 0.00 0.48 0.15 93 1011.5
20260507113043 50 0 0.0 1.7 0.00 0.48 0.15 94 1011.5
20260507111542 50 128 0.0 1.7 0.00 0.48 0.15 94 1011.5
20260507110039 49 128 0.0 1.7 0.00 0.48 0.15 94 1011.4
20260507104540 49 128 0.0 0.9 0.00 0.48 0.15 94 1011.1
20260507103034 49 128 0.0 0.9 0.00 0.48 0.15 93 1011.0
20260507101553 49 0 0.0 1.7 0.00 0.48 0.15 93 1010.7
20260507100054 49 0 0.0 0.9 0.00 0.48 0.15 93 1010.6
20260507094538 49 0 0.0 0.9 0.00 0.48 0.15 93 1010.4
20260507093040 49 0 0.0 1.7 0.00 0.48 0.15 93 1010.4
20260507091537 50 0 0.0 1.7 0.00 0.48 0.15 92 1010.2
20260507090034 49 0 0.0 1.7 0.00 0.48 0.15 92 1010.0
20260507084546 49 0 0.0 2.6 0.01 0.48 0.15 92 1009.9
20260507083051 49 156 1.7 2.6 0.01 0.48 0.15 92 1009.6
20260507081540 49 0 0.0 1.7 0.02 0.48 0.15 91 1009.8
20260507080049 49 156 0.9 3.5 0.03 0.48 0.15 91 1009.9
20260507074542 49 0 0.0 4.3 0.03 0.47 0.14 90 1010.2
20260507073053 50 162 1.7 5.2 0.06 0.47 0.14 90 1010.1
20260507071542 50 176 2.6 6.1 0.07 0.46 0.13 91 1010.6
20260507070041 50 158 3.5 7.0 0.07 0.45 0.12 91 1010.7
20260507064542 50 146 2.6 8.7 0.08 0.44 0.11 91 1011.0
20260507063046 51 146 4.3 7.8 0.06 0.41 0.08 91 1010.4
20260507061537 51 145 1.7 5.2 0.04 0.39 0.06 91 1010.5
20260507060042 51 155 3.5 7.0 0.03 0.38 0.05 90 1010.2
20260507054543 52 134 5.2 11.3 0.02 0.36 0.03 89 1010.6
20260507053037 53 141 6.1 13.0 0.02 0.35 0.02 89 1010.3
20260507051539 54 171 5.2 9.6 0.02 0.35 0.02 90 1010.3
20260507050040 55 157 3.5 7.0 0.02 0.35 0.02 91 1009.9
20260507044540 56 141 2.6 6.1 0.02 0.34 0.01 91 1009.6
20260507043043 56 151 3.5 6.1 0.01 0.33 0.00 90 1009.6
20260507041546 57 166 2.6 6.1 0.01 0.33 0.00 90 1009.2
20260507040040 57 167 3.5 10.4 0.01 0.33 0.00 90 1008.9
20260507034539 59 134 1.7 3.5 0.00 0.32 0.32 92 1009.4
20260507033044 59 0 0.0 1.7 0.00 0.32 0.32 91 1009.2
20260507031538 59 0 0.0 3.5 0.00 0.32 0.32 91 1009.2
20260507030041 59 134 0.9 3.5 0.00 0.32 0.32 90 1009.0
20260507024537 60 115 0.9 3.5 0.12 0.32 0.32 89 1009.0
20260507023044 61 127 1.7 7.0 0.16 0.32 0.32 89 1009.1
20260507021538 62 134 2.6 8.7 0.16 0.32 0.32 90 1008.9
20260507020057 63 134 0.9 7.0 0.16 0.32 0.32 89 1008.9
20260507014544 64 124 3.5 7.0 0.03 0.19 0.19 86 1009.4
20260507013038 65 108 0.9 3.5 0.00 0.16 0.16 84 1008.6
20260507011542 65 112 0.9 3.5 0.00 0.16 0.16 84 1008.7
20260507010043 65 107 0.9 4.3 0.00 0.16 0.16 84 1008.4
20260507004543 65 105 0.9 4.3 0.00 0.16 0.16 84 1008.5
20260507003039 65 112 0.9 5.2 0.00 0.16 0.16 84 1008.2
20260507001546 65 113 0.0 2.6 0.00 0.16 0.16 83 1007.9
20260507000044 65 0 0.9 3.5 0.00 0.16 0.16 82 1007.7
20260506234550 66 113 1.7 4.3 0.00 0.16 0.16 82 1007.7
20260506233038 66 129 0.9 7.0 0.00 0.16 0.16 81 1007.8
20260506231546 66 105 0.0 3.5 0.00 0.16 0.16 80 1007.9
20260506230052 67 120 0.9 6.1 0.00 0.16 0.16 80 1007.7